Regional Weather Roundup
Issued by NWS Green Bay, WI

Home | Current Version | Previous Version | Graphics & Text | Print | Product List | Glossary Off
Versions: 1 2 3 4 5 6 7 8 9 10 11 12 13 14 15 16 17 18 19 20 21 22 23 24 25 26 27 28 29 30 31 32 33 34 35 36 37 38 39 40 41 42 43 44 45 46 47 48 49 50

000
ASUS43 KGRB 252300
RWRGRB

NORTH-CENTRAL AND NORTHEAST WISCONSIN REGIONAL WEATHER ROUNDUP
NATIONAL WEATHER SERVICE GREEN BAY WI
600 PM CDT WED MAY 25 2016

WIZ005-009-010>012-018-019-260000-
NORTH CENTRAL WISCONSIN

CITY           SKY/WX    TMP DP  RH WIND       PRES   REMARKS
IRONWOOD       CLOUDY    73  52  46 E7        29.85R
MANITOWISH WTR NOT AVBL
ARBOR VITAE    NOT AVBL
EAGLE RIVER    NOT AVBL
LAND O LAKES   NOT AVBL
RHINELANDER    RAIN      65  60  84 E9        29.90F
PHILLIPS       NOT AVBL
ANTIGO         NOT AVBL
TOMAHAWK       NOT AVBL
MERRILL        CLOUDY    64  64 100 SE10      29.88F
$$

WIZ013-073-260000-
NORTHEAST WISCONSIN

CITY           SKY/WX    TMP DP  RH WIND       PRES   REMARKS
IRON MOUNTAIN  PTSUNNY   70  58  65 SE9       29.95S
MARINETTE      CLOUDY    59  55  87 E9        29.98S
$$

WIZ017-030-035>037-045-260000-
CENTRAL WISCONSIN

CITY           SKY/WX    TMP DP  RH WIND       PRES   REMARKS
MEDFORD        NOT AVBL
WAUSAU         LGT RAIN  66  32  28 E13G22    29.85F
MOSINEE        CLOUDY    64  63  94 E13G18    29.87F
MARSHFIELD     CLOUDY    68  62  81 SE13      29.84S
WISC RAPIDS    CLOUDY    68  62  81 VRB3      29.86F
STEVENS POINT  NOT AVBL
WAUPACA        NOT AVBL
SHAWANO        NOT AVBL
CLINTONVILLE   NOT AVBL
WAUTOMA        NOT AVBL
$$

WIZ038-039-048-051-260000-
FOX VALLEY

CITY           SKY/WX    TMP DP  RH WIND       PRES   REMARKS
NWS GREEN BAY  CLOUDY    63  59  87 NE13      29.95R
APPLETON       LGT RAIN  66  57  72 E8        29.90F
OSHKOSH        LGT RAIN  64  58  80 E13       29.88F
FOND DU LAC    CLOUDY    68  63  84 SE9       29.88F
$$

WIZ022-050-052-260000-
EAST CENTRAL WISCONSIN

CITY           SKY/WX    TMP DP  RH WIND       PRES   REMARKS
EPHRAIM        NOT AVBL
STURGEON BAY   NOT AVBL
MANITOWOC      NOT AVBL
SHEBOYGAN      CLOUDY    54  50  86 NE12      29.93F
$$

LMZ563-521-522-541>543-260000-
LAKESHORE

STATION/POSITION TIME  TEMP    WIND        PRES    VSBY  WAVE
                       AIR SEA DIR/SP/G                  HT/PER
                 (UTC) (F)     (DEG/KT/KT) (MB)    (MI)  (FT/S)
SHEBOYGAN LKSHOR 2200   48     360/ 12/ 13 1014.6F
KEWAUNEE LKSHORE 2200           30/  7/ 10 1014.2F
NORTHPORT PIER   2200   55      90/  6/ 13 1014.9F
N MID LAKE BUOY  2150   49 45   50/ 10/ 10 1014.8F         1
SISTER BAY LKSHO 2220   63      70/ 11/ 22   N/A
CHAMBERS ISLAND  2200   59      40/ 12/ 17 1014.9F
MENOMINEE LKSHOR 2200           20/  6/  8 1013.8F
$$



USA.gov is the U.S. government's official web portal to all federal, state and local government web resources and services.